www.pogodaiklimat.ru

Погода и климат >> Архив погоды >> Пакистан >> Окара


ПОГОДА в Окаре

  • Прогноз погоды в Окаре
  • Монитор погоды в Окаре

АРХИВ ПОГОДЫ в Окаре

Время (UTC), дата Ветер
(напр.,м/с)
 
Видим.   Явления Облачность Т
(С)
Тd
(С)
f
(%)
Тe
(С)
Тes
(С)
Комфортность P
(гПа)
Po
(гПа)
Тmin
(С)
Tmax
(С)
R
(мм)
R24
(мм)
S
(см)
06 10.07 В 1 4000 м мгла 5/0
[Ac As]
+35.0 +26.8 63 +53 +68 опасность
перегрева
995.2 975.4
09 10.07 ЮЗ 2 4000 м мгла 6/1 1200 м
[Sc Ac As]
+39.5 +25.8 46 +54 +63 опасность
перегрева
993.3 973.7
12 10.07 штиль 0 4000 м мгла 6/1 1200 м
[Sc Ac As]
+40.0 +25.6 44 +54 +56 опасность
перегрева
992.3 972.7 +41.0
15 10.07 штиль 0 4000 м мгла 6/1 1200 м
[Sc Ac As]
+36.0 +26.4 58 +53 +53 опасность
перегрева
992.9 973.1
18 10.07 штиль 0 4000 м мгла 5/1 1200 м
[Sc Ac As]
+33.5 +26.6 67 +50 +50 опасность
перегрева
993.8 973.8
21 10.07 штиль 0 4000 м мгла 4/0
[Ac As]
+32.0 +26.5 73 +49 +49 опасность
перегрева
994.6 974.4
03 11.07 штиль 0 4000 м мгла 6/3 1200 м
[Sc Ac As]
+33.5 +26.6 67 +50 +55 опасность
перегрева
994.8 974.8 +30.5
06 11.07 штиль 0 4000 м мгла 8/3 1200 м
[Sc diur, vesp Ac As]
+36.0 +27.2 61 +55 +64 опасность
перегрева
994.6 974.8
09 11.07 ЮВ 1 4000 м мгла 8/3 1200 м
[Sc diur, vesp Ac As]
+39.0 +26.0 48 +54 +61 опасность
перегрева
993.3 973.7
12 11.07 ЮЗ 2 4000 м пыль 8/3 1200 м
[Sc Ac trans]
+39.0 +26.0 48 +54 +55 опасность
перегрева
992.2 972.6 +39.5
15 11.07 ЮЗ 2 4000 м пыль 8/3 1200 м
[Sc Ac trans]
+39.0 +26.0 48 +54 +54 опасность
перегрева
992.2 972.6 +39.5
18 11.07 штиль 0 4000 м дым ясно +35.0 +26.8 63 +53 +53 опасность
перегрева
993.5 973.5
00 12.07 штиль 0 4000 м дым 5/5 1200 м
[Sc]
+30.0 +24.3 72 +42 +42 опасность
перегрева
992.9 972.7
03 12.07 З 2 4000 м дым ясно +33.0 +24.6 61 +46 +53 опасность
перегрева
994.4 974.4 +29.5
06 12.07 Ю 2 4000 м пыль 5/5 1200 м
[Sc]
+35.0 +23.7 52 +46 +56 опасность
перегрева
996.1 976.1
09 12.07 штиль 0 4000 м пыль 5/5 1200 м
[Sc]
+37.0 +23.6 46 +47 +59 опасность
перегрева
995.5 975.9
12 12.07 ЮВ 2 4000 м пыль 5/5 1200 м
[Sc]
+38.0 +25.6 49 +52 +54 опасность
перегрева
994.3 974.7 +39.0
15 12.07 штиль 0 4000 м дым ясно +36.0 +26.4 58 +53 +53 опасность
перегрева
994.6 975.0
18 12.07 штиль 0 4000 м дым ясно +34.0 +25.7 62 +49 +49 опасность
перегрева
996.5 976.5
21 12.07 штиль 0 4000 м дым ясно +33.0 +26.1 67 +49 +49 опасность
перегрева
995.5 975.7
00 13.07 штиль 0 4000 м дым ясно +32.0 +25.0 67 +46 +46 опасность
перегрева
995.1 974.9
03 13.07 Ю 3 4000 м в посл. час дождь 8/5 1200 м
[St As op]
+26.0 +23.1 84 +35 +36 очень
душно
999.4 978.8 +24.5 4
06 13.07 ЮВ 1 4000 м дым {дождь} 6/0
[Ac trans]
+32.0 +25.0 67 +46 +61 опасность
перегрева
998.4 978.2
21 13.07 штиль 0 4000 м в посл. час гроза {дождь} 10/5 1200 м
[Sc As op]
+30.0 +27.3 85 +48 +48 опасность
перегрева
994.4 974.4 11
03 14.07 С 2 4000 м дым 10/5 1200 м
[Sc As op]
+26.0 +23.1 84 +35 +35 очень
душно
996.1 975.5 +25.0
06 14.07 Ю 2 4000 м дым 6/0
[Ac trans]
+31.0 +23.9 66 +43 +56 опасность
перегрева
996.8 976.6
09 14.07 ЮВ 3 4000 м дым 8/5 1200 м
[Sc Ac trans]
+33.0 +24.6 61 +46 +50 опасность
перегрева
995.2 975.4
18 14.07 СЗ 1 4000 м дым ясно +29.0 +25.5 81 +43 +43 опасность
перегрева
995.5 975.1
00 15.07 ЮВ 1 4000 м дым ясно +27.0 +24.1 84 +37 +37 очень
душно
995.0 974.6
03 15.07 ЮВ 1 4000 м дым 8/4 1200 м
[Sc Ac trans]
+28.5 +24.4 79 +40 +43 очень
душно
995.6 975.2 +26.5
06 15.07 СВ 1 4000 м дым 9/4 1200 м
[Sc Ac trans]
+34.0 +27.2 68 +53 +60 опасность
перегрева
996.1 976.1
09 15.07 штиль 0 4000 м дым 9/4 1200 м
[Sc Ac trans]
+36.0 +26.4 58 +53 +60 опасность
перегрева
994.6 975.0
12 15.07 СВ 1 4000 м дым 9/4 1200 м
[Sc Ac trans]
+36.5 +27.0 58 +54 +55 опасность
перегрева
993.8 974.0 +37.0
15 15.07 штиль 0 4000 м дым 9/4 1200 м
[Sc Ac trans]
+34.0 +27.2 68 +53 +53 опасность
перегрева
994.5 974.8
18 15.07 СВ 2 4000 м дым 9/5 1200 м
[Sc diur, vesp Ac As]
+29.0 +24.8 78 +41 +41 опасность
перегрева
997.1 976.7
21 15.07 штиль 0 4000 м дым 9/5 1200 м
[Sc diur, vesp Ac As]
+28.5 +23.5 74 +39 +39 очень
душно
995.5 975.2
00 16.07 штиль 0 4000 м дым 9/5 1200 м
[Sc diur, vesp Ac As]
+28.0 +23.7 77 +38 +38 очень
душно
995.7 975.3
03 16.07 штиль 0 4000 м дым 9/5 1200 м
[Sc diur, vesp Ac As]
+29.0 +24.8 78 +41 +44 опасность
перегрева
998.5 978.1 +27.5
06 16.07 СВ 2 4000 м дым 9/5 1200 м
[Sc diur, vesp Ac As]
+32.0 +24.2 63 +44 +48 опасность
перегрева
1000.3 980.1
12 16.07 ЮВ 2 4000 м дым 9/5 1200 м
[Sc diur, vesp Ac As]
+33.0 +24.6 61 +46 +46 опасность
перегрева
999.0 979.0 +34.0
15 16.07 ЮВ 1 4000 м дым 9/5 1200 м
[Sc diur, vesp Ac As]
+27.0 +22.6 77 +36 +36 очень
душно
1000.5 980.1
18 16.07 штиль 0 4000 м дым 9/5 1200 м
[Sc diur, vesp Ac As]
+26.5 +22.1 77 +34 +34 очень
душно
1001.6 981.0
21 16.07 штиль 0 4000 м дым 9/5 1200 м
[Sc diur, vesp Ac As]
+26.0 +22.3 80 +34 +34 очень
душно
1001.7 981.3
00 17.07 штиль 0 4000 м дым 9/5 1200 м
[Sc diur, vesp Ac As]
+25.0 +21.3 80 +32 +32 очень
душно
1001.4 980.8

 

Местоположение метеостанции Окара (Пакистан): широта 30.80 долгота 73.43 высота над уровнем моря 180 м.

В архиве по умолчанию представлена погода в Окаре за последнюю неделю. Архивные данные за месяц целиком и за предыдущие месяцы, начиная с января 2011 года, Вы можете получить, выбрав интересующий диапазон дат из раскрывающегося списка и нажав кнопку "Ввод!".


*Определитесь, кто Вы:
робот инопланетянин человек

Внимание! Время в таблицах - всемирное. Для получения местного времени необходимо прибавить поправку, которая равна 5 ч.

Смотрите также архив погоды в соседних городах и на ближайших метеорологических станциях:

Погода в Сахивале (Пакистан) (42 км)
Погода в Фейсалабаде (Пакистан) (77 км)
Погода в Тоба Тек Сингх (Пакистан) (94 км)
Погода в Бахавалнагаре (Пакистан) (96 км)
Погода в Касуре (Пакистан) (105 км)
Погода в Шри-Ганганагаре (Раджастхан, Индия) (106 км)
Погода на Авиабазе Raifiqui (Пакистан) (118 км)
Погода в Джанге (Пакистан) (118 км)
Погода в Лахоре (Пакистан) (120 км)
Погода в Лахор аэропорту (Пакистан) (122 км)

Пояснения к столбцам:

Ветер - указаны скорость ветра в м/с - средняя за 10 мин, порывы в срок и между сроками (в фигурных скобках) и направление, откуда дует ветер: С - северный, СВ - северо-восточный, В - восточный, ЮВ - юго-восточный, Ю - южный, ЮЗ - юго-западный, З - западный, СЗ - северо-западный.
Видимость - горизонтальная дальность видимости в метрах или километрах. При видимости от 1 до 10 км при отсутствии осадков обычно наблюдается дымка, при ухудшении видимости до 1 км и менее - туман. В сухую погоду видимость может ухудшаться дымом, пылью или мглою.
Явления - указаны атмосферные явления, наблюдавшиеся в срок или в последний час перед сроком; фигурными скобками обозначены явления, наблюдавшиеся между сроками (за 1-3 часа до срока); квадратными скобками обозначены град или гололедные отложения с указанием их диаметра в мм.
Облачность - указаны через наклонную черту общая и нижняя облачность в баллах и высота нижней границы облаков в метрах; квадратными скобками обозначены формы облаков: Ci - перистые, Cs - перисто-слоистые, Cc - перисто-кучевые, Ac - высококучевые, As - высокослоистые, Sc - слоисто-кучевые, Ns - слоисто-дождевые, Cu - кучевые, Cb - кучево-дождевые. Подробнее классификацию облаков см. в Атласе облаков (PDF).
T - Температура воздуха - температура, измеренная на высоте 2 м над землей.
Td - Температура точки росы - температура, при понижении до которой содержащийся в воздухе водяной пар достигнет насыщения.
f - Относительная влажность воздуха - влажноcть воздуха, измеренная на высоте 2 м над землей.
Te - Эффективная температура - температура, которую ощущает одетый по сезону человек в тени. Характеристика душности погоды. При расчете учитывается влияние влажности воздуха и скорости ветра на теплоощущения человека.
Tes - Эффективная температура на солнце - температура, которую ощущает человек, с поправкой на солнечный нагрев. Характеристика знойности погоды. Зависит от высоты солнца над горизонтом, облачности и скорости ветра. Ночью, в пасмурную погоду, а также при ветре 12 м/с и более поправка равна нулю.
P - Атмосферное давление - приведенное к уровню моря атмосферное давление.
Po - Атмосферное давление - измеренное на уровне метеостанции атмосферное давление.
Tmin - Минимальная температура - минимум температуры воздуха на высоте 2 м над землей.
Tmax - Максимальная температура - максимум температуры воздуха на высоте 2 м над землей.
R - Количество осадков - Количество выпавших осадков за период времени, мм. При наведении курсора мыши на число - период времени, за который выпало указанное количество осадков.
R24 - Количество осадков - Количество выпавших осадков за 24 часа, мм.
S - Снежный покров - Высота снежного покрова, см. При наведении курсора мыши на число - состояние снежного покрова и степень покрытия местности в баллах.